Location: Raitis
(47.2167°N, 11.3833°E)
Time: 04:16:37
(UTC+00:00)

CZ-2C R/B - Pass Details

Date: 03 March 2021
Orbit: 703 x 908 km, 98.1° (Epoch: 22 April)

Event Time Altitude Azimuth Distance (km) Brightness Sun altitude
Rises 17:20:32 0° 166° (SSE) 3,508 6.3 -3.8°
Reaches altitude 10° 17:22:58 10° 166° (SSE) 2,559 5.6 -4.2°
Maximum altitude 17:28:42 86° 256° (WSW) 880 3.4 -5.2°
Drops below altitude 10° 17:34:15 10° 346° (NNW) 2,469 5.8 -6.1°
Sets 17:36:34 0° 347° (NNW) 3,378 6.5 -6.5°
